Новобратцевский

Россия / Московская область     55°51′11″N   37°23′10″E
темп.,
°C
ветер,
м/с
пор.,
м/с
влажн.,
%
обл.,
%
осадки,
мм/ч
давл.,
гПа
погр.,
м
19 апреля, пн
пн1900:00+8всв396390 0.0 1023892
03:00+7св4974100 0.0 1023751
06:00+7всв51081100 0.1 1022635
09:00+7всв5871100 0.1 1023748
12:00+10всв6852100 0.0 10231111
15:00+11всв7845100 0.0 10221609
18:00+10всв6949100 0.0 10231390
21:00+8в6104793 0.0 10231206
20 апреля, вт
вт2000:00+6в5945100 0.0 10231251
03:00+4в51069100 0.3 1023839
06:00+3в5116099 0.0 1022692
09:00+4в5961100 0.1 1021742
12:00+3в61091100 0.3 1021710
15:00+3в51194100 1.3 1019594
18:00+3всв41396100 0.9 1017621
21:00+3в51395100 1.8 1014696
21 апреля, ср
ср2100:00+3всв61496100 2.4 1009826
03:00+2всв61595100 7.4 1005816
06:000св51299100 7.6 1001521
09:00+2с36100100 10.3 999300
12:00+1з4799100 2.4 1000257
15:00+2зюз51197100 2.7 1004731
18:00+3юз51197100 0.1 1007908
21:00+3ю4119579 0.1 1010537
22 апреля, чт
чт2200:00+4ююз4119436 0.0 1011552
03:00+2ююз4109532 0.0 1012336
06:00+3ю41294100 0.4 1012504
09:00+4ю3993100 1.0 1013418
12:00+8ююз5880100 0.0 1014746
15:00+10юз4672100 0.1 10151016
18:00+11ю36695 0.0 1015455
21:00+8ю26887 0.0 1017133
23 апреля, пт
пт2300:00+7ю23925 0.0 101768
03:00+6ю27925 0.0 1016143
06:00+5ю299237 0.0 1017197
09:00+11ю4107162 0.0 1016457
12:00+15ю79476 0.1 10151718
15:00+17ю7103913 0.1 10132199
18:00+16ю612475 0.0 10121665
21:00+13ю6125869 0.0 1012981